Theta_e
310 310 308 302 301 300 299 299 298 297 298 298 298 298 299 299 303 302 299 301 301 304 306 308 309 312 312 315 318 320 323 326 322 321 315 313 315 313 315 317 316 316 317
305 306 302 301 303 302 298 298 297 297 297 298 298 298 298 298 299 302 302 303 302 303 304 305 306 308 308 310 314 315 317 320 322 314 308 308 310 313 314 310 312 313 312
304 302 301 300 300 298 298 297 297 297 297 298 298 298 300 300 298 297 299 300 302 302 303 303 304 304 304 306 307 310 314 317 318 311 305 307 309 310 306 308 306 305 308
303 300 299 299 299 298 298 298 297 296 296 295 296 297 299 299 299 299 300 298 300 300 302 303 304 304 305 305 306 306 308 312 315 310 304 305 306 307 307 303 301 304 303
302 300 299 300 300 299 299 299 298 297 297 297 297 296 295 297 300 297 298 300 299 300 301 302 303 305 308 308 307 306 307 309 309 306 302 302 303 303 302 304 303 305 306
303 302 301 302 303 299 298 298 298 299 297 297 297 296 294 297 301 302 302 300 300 300 300 301 303 305 306 307 307 308 307 306 306 304 302 301 302 303 302 301 301 300 298
304 303 302 302 303 299 304 303 301 302 300 296 297 298 299 295 300 301 302 300 300 300 301 301 302 304 306 306 306 306 307 307 306 304 303 303 302 302 301 299 300 301 301
303 303 302 302 302 299 299 301 297 294 295 295 298 303 303 301 301 300 301 300 301 302 303 302 301 302 302 305 304 303 304 305 305 304 303 303 304 305 304 303 303 303 304
302 301 301 300 299 298 297 296 294 293 294 296 300 302 302 301 301 299 299 300 301 301 303 303 302 301 301 301 302 302 302 303 306 306 305 304 303 304 306 305 302 302 301
302 302 301 300 298 297 296 295 293 295 295 297 299 298 303 301 300 298 298 297 295 299 301 302 303 302 300 300 301 301 299 301 303 303 304 305 305 305 306 306 304 300 299
303 302 301 300 299 298 296 293 294 294 295 296 295 296 301 302 299 298 298 297 296 299 300 300 302 300 298 297 299 302 302 304 304 303 303 303 304 303 303 303 302 302 298
303 303 301 300 300 299 295 294 294 293 292 292 291 292 296 300 301 298 297 298 300 298 296 298 299 298 298 298 298 299 299 302 301 300 300 300 301 301 301 301 300 299 300
302 302 301 300 299 299 295 294 292 292 291 291 291 291 292 294 295 299 297 297 298 296 298 298 297 297 297 299 300 299 298 298 298 297 297 297 298 300 300 300 301 300 299
302 301 300 298 298 297 297 296 294 292 291 291 292 292 292 292 292 294 296 295 298 299 300 298 298 297 298 298 298 298 298 297 296 295 296 297 298 298 297 297 296 296 296
302 301 299 298 298 297 298 298 297 297 295 294 295 294 293 293 295 295 295 295 296 296 296 294 295 294 294 294 295 297 299 298 297 296 296 296 296 296 296 296 295 293 293
301 301 300 299 298 298 297 297 297 297 296 295 296 297 298 297 296 295 295 294 294 294 295 295 295 294 294 295 296 297 298 299 297 297 296 296 296 296 295 294 293 291 291
302 302 302 301 300 299 298 297 297 297 296 295 294 295 295 298 295 295 294 293 292 292 294 295 296 296 297 297 298 298 298 298 298 297 296 296 296 295 293 293 293 292 292
305 302 302 302 301 300 300 299 299 298 296 297 295 295 293 294 294 294 293 291 296 294 296 298 298 298 297 296 297 297 298 297 295 296 296 297 296 297 294 294 294 293 293
307 306 304 303 303 301 301 301 301 300 300 300 300 295 293 293 292 291 291 298 297 297 297 296 298 299 299 299 299 298 296 296 295 294 294 295 296 295 295 296 293 289 289
308 303 302 303 303 302 302 301 301 301 301 301 301 301 299 291 292 293 294 296 296 298 299 298 298 299 299 299 299 296 295 294 293 293 294 294 294 293 293 291 291 290 289
307 308 299 304 304 303 303 303 304 303 303 303 303 303 294 298 299 299 299 297 298 299 300 300 300 300 300 300 298 295 294 295 294 294 294 294 292 290 290 289 289 290 288
309 308 304 304 306 305 305 305 304 303 303 303 304 303 290 296 301 301 300 300 301 301 302 302 301 301 301 300 299 297 295 295 294 294 292 290 290 289 288 288 290 289 290
292 293 295 294 298 294 298 299 300 299 300 300 301 302 300 297 300 302 302 302 302 302 302 301 301 301 301 299 299 299 298 297 296 292 291 290 289 288 288 288 291 290 290
289 289 289 288 288 288 288 288 289 289 291 293 294 296 299 300 299 301 302 304 304 303 303 301 301 300 300 298 297 296 296 294 293 294 293 291 289 288 291 290 291 290 288
286 285 285 285 285 285 286 286 286 286 287 288 288 288 290 292 298 301 299 302 303 303 301 301 301 300 299 297 292 291 287 287 290 288 291 292 292 291 290 290 290 288 287
286 285 285 286 285 285 285 285 285 285 285 286 286 286 287 287 288 291 298 299 298 298 297 297 297 294 291 289 287 285 285 285 286 286 291 291 290 289 288 287 286 284 283
Wind_Speed
4 2 3 4 4 4 4 4 4 4 5 5 5 6 6 5 7 6 5 5 5 6 6 8 8 8 5 5 5 6 8 9 12 4 1 3 12 12 11 10 11 8 8
6 5 4 4 3 3 4 3 2 2 3 4 4 5 4 5 5 7 7 5 5 6 6 7 7 6 8 7 6 8 8 10 6 8 3 4 5 11 11 11 9 8 7
7 6 4 3 3 2 3 2 2 2 3 3 4 3 4 3 3 4 5 5 5 5 5 6 6 7 6 6 8 9 9 7 9 3 4 2 2 9 10 10 10 8 4
7 7 6 4 3 2 1 0 1 1 2 2 2 3 4 4 5 5 4 5 5 5 4 5 6 6 6 7 8 8 10 11 8 4 2 3 4 9 11 12 11 7 5
8 7 7 6 4 2 2 3 3 2 2 2 1 2 3 3 3 4 5 4 5 6 6 6 6 11 15 12 8 8 9 10 6 5 5 5 6 10 12 11 12 10 8
9 8 7 7 6 6 5 5 4 5 3 3 4 3 3 3 6 7 5 3 4 5 7 6 6 11 9 10 9 12 5 5 6 5 5 8 9 6 7 10 9 10 6
9 8 7 6 7 6 5 4 5 4 3 5 5 5 5 4 6 5 5 3 4 7 7 5 6 8 8 2 5 10 12 16 13 4 6 6 9 9 12 11 5 6 4
7 8 7 7 7 6 6 5 5 2 4 5 6 6 6 4 7 5 4 3 4 5 6 4 4 7 10 4 3 5 5 8 8 7 10 10 12 9 8 7 8 4 4
9 8 8 7 7 6 6 6 4 3 4 5 4 6 6 4 6 6 4 3 3 3 3 4 4 6 11 14 8 7 5 6 9 14 14 15 13 9 6 5 5 6 3
11 10 8 7 7 7 7 6 4 4 5 4 4 4 5 4 5 7 4 1 4 2 3 3 7 5 7 7 5 4 3 4 3 4 4 3 2 0 3 3 3 3 3
9 8 8 8 8 7 6 4 4 5 4 3 3 5 4 4 3 6 6 1 2 3 3 3 4 4 4 6 7 3 2 3 4 3 2 1 2 2 3 5 5 4 4
9 9 9 8 6 5 7 5 4 5 4 3 3 5 4 4 4 6 9 8 5 4 4 3 4 6 7 5 1 8 8 3 1 1 2 1 2 3 4 4 5 5 4
9 10 9 8 7 7 7 6 4 5 5 4 4 4 4 3 4 7 9 10 9 5 4 5 4 12 14 11 8 9 4 3 3 1 2 2 2 2 2 2 3 4 5
12 11 8 8 8 7 5 5 5 5 4 4 4 5 4 4 4 4 5 5 10 8 9 6 4 6 9 8 6 4 3 3 4 3 3 2 1 1 1 1 1 1 1
12 11 9 7 9 7 6 7 7 7 7 6 6 5 5 5 6 8 7 6 7 9 5 2 4 3 4 3 3 4 3 2 2 2 3 1 2 3 2 1 2 3 3
11 8 9 9 7 7 6 5 10 11 15 14 12 9 6 13 7 11 15 15 12 6 2 4 6 4 5 4 4 3 2 4 3 3 3 3 4 3 3 3 3 4 4
12 10 8 9 8 8 6 6 7 6 16 14 15 17 16 15 11 13 12 15 11 6 5 6 7 6 5 4 4 3 4 3 4 4 3 4 4 4 4 3 4 4 4
14 14 10 9 8 8 8 7 6 7 5 5 10 15 17 19 17 14 11 8 3 4 5 8 8 6 5 5 5 4 4 4 4 4 4 5 5 5 4 6 6 6 5
13 11 11 9 9 9 8 8 7 8 7 7 4 4 11 15 9 10 13 7 7 7 8 8 8 7 7 6 6 5 5 4 4 4 4 5 5 5 7 6 4 4 4
12 17 12 10 8 8 7 8 8 9 8 7 7 9 3 5 5 7 9 8 8 9 8 9 8 8 8 8 6 5 5 5 5 5 6 5 5 5 5 5 5 4 3
8 9 11 9 9 9 9 9 9 9 9 8 9 10 10 9 8 9 9 9 10 10 10 10 8 8 8 8 7 5 6 7 6 6 5 5 4 3 3 3 4 3 3
7 8 7 10 8 7 7 7 8 8 8 8 9 9 8 8 9 8 8 9 10 10 9 9 9 9 9 9 8 7 7 7 6 5 5 4 5 5 4 4 3 4 4
11 11 8 8 6 7 6 5 3 3 2 2 5 7 5 6 9 9 9 10 9 9 9 8 9 8 7 7 7 8 8 8 7 6 6 6 6 5 4 3 3 3 4
11 12 10 11 9 9 8 7 8 7 7 5 5 6 7 6 6 8 9 10 9 9 8 8 9 11 9 7 7 7 6 3 4 7 10 8 6 5 4 3 3 3 3
11 10 11 9 10 8 7 6 7 6 7 7 7 8 9 8 10 6 6 8 8 8 8 7 7 9 11 9 5 6 5 7 6 5 5 5 6 7 5 3 3 2 3
11 11 10 8 8 7 7 7 7 6 7 7 8 7 7 8 8 8 8 5 7 5 4 3 4 9 12 10 11 10 11 11 9 9 5 5 4 1 1 1 2 2 3
Wind_Direction
133 114 116 87 81 72 70 59 45 36 31 36 33 31 25 19 15 9 359 357 347 331 327 319 322 300 289 288 272 276 268 239 232 232 179 217 185 188 188 177 172 166 150
159 149 135 141 107 85 76 64 59 56 22 31 39 42 25 22 3 4 355 343 340 339 329 327 313 317 311 292 278 262 258 266 272 209 152 184 185 183 167 159 151 143 151
150 164 161 141 127 121 87 66 33 20 17 16 2 356 350 355 358 350 343 336 332 324 327 330 335 336 330 323 313 294 271 258 251 245 163 153 137 160 145 142 140 102 112
161 166 167 176 186 191 156 118 67 20 355 351 348 339 343 342 350 345 339 330 327 327 333 333 331 329 306 330 319 282 280 269 248 209 128 159 155 167 159 149 138 136 135
168 168 181 178 187 207 256 297 318 301 282 289 276 314 320 315 310 327 331 335 326 322 317 316 310 312 322 327 328 299 267 261 235 203 162 152 147 160 167 155 145 147 137
169 182 184 173 172 199 222 247 268 284 309 308 290 274 304 301 319 329 342 330 325 316 315 315 309 309 307 314 356 2 17 267 220 186 170 162 152 154 135 137 134 140 130
184 180 174 174 179 193 206 216 230 250 267 280 275 263 258 242 279 292 319 344 318 306 299 291 311 326 298 328 7 354 22 59 67 49 125 131 119 133 115 112 90 97 68
186 181 165 177 185 193 207 210 227 247 257 255 261 259 254 239 243 240 283 317 314 315 350 31 15 353 16 15 43 346 21 30 46 68 76 88 91 90 103 117 138 124 109
183 192 179 180 187 188 203 216 216 209 238 237 260 273 241 219 232 202 249 304 327 3 13 7 15 27 4 27 26 46 44 52 56 51 63 77 83 85 109 137 155 166 147
186 193 180 180 180 196 196 212 217 212 217 235 264 313 274 254 202 182 182 200 312 320 290 17 4 355 342 331 340 353 17 9 30 53 36 36 92 206 211 222 170 148 149
181 185 177 184 185 197 187 186 213 214 225 232 292 293 279 260 223 186 201 257 260 286 302 308 338 342 312 289 295 306 221 330 255 221 271 269 262 218 181 194 193 162 157
178 182 182 185 182 188 180 189 199 191 200 230 281 277 251 237 218 208 221 217 228 265 258 273 288 292 322 346 221 232 252 214 280 72 126 168 164 208 220 219 212 216 214
180 190 184 184 186 189 178 179 186 194 186 208 222 248 260 230 227 244 224 219 234 255 248 227 282 308 327 328 312 296 272 227 232 221 195 225 197 236 274 200 196 223 236
187 193 183 185 191 190 187 181 180 195 193 191 216 246 253 244 223 225 234 232 246 247 270 276 274 259 252 255 276 262 233 205 207 234 244 240 20 26 286 214 264 57 0
194 192 181 193 196 192 200 193 198 217 192 181 216 211 222 247 228 188 216 220 226 235 249 259 287 280 291 275 259 271 277 218 219 215 224 252 258 238 246 169 217 175 207
199 194 191 194 195 189 194 217 226 228 207 206 203 196 229 234 232 201 212 232 239 217 217 252 256 233 249 265 264 275 249 249 236 225 213 211 229 232 213 198 194 198 232
204 197 197 198 190 189 192 199 226 243 232 221 216 218 223 242 224 227 228 228 227 150 232 246 256 260 259 254 254 234 255 227 214 222 232 233 226 231 210 229 216 209 231
203 199 193 195 196 194 193 196 210 227 228 240 230 222 220 228 234 228 210 134 249 207 229 248 250 242 232 232 239 240 256 246 222 227 229 229 217 222 211 226 216 213 220
203 204 199 195 198 200 191 197 204 224 225 236 232 214 222 223 224 215 176 204 203 215 219 233 239 244 240 234 236 240 242 256 232 221 231 227 225 201 234 236 216 195 136
209 212 198 192 197 198 195 199 205 221 227 229 233 239 205 127 185 199 205 208 213 227 229 227 220 220 227 226 225 208 228 245 248 241 244 233 234 204 225 192 176 164 192
214 212 204 200 198 199 202 209 213 217 223 229 232 232 201 200 220 211 206 205 218 223 222 227 232 228 219 220 216 197 205 226 222 233 237 246 190 187 172 136 136 178 207
228 213 190 210 210 209 209 218 221 222 226 235 247 251 215 212 227 224 220 221 218 220 223 220 221 215 214 216 214 215 225 234 223 218 220 185 159 149 147 150 171 191 210
38 34 45 57 51 52 57 37 40 26 356 310 278 267 254 223 228 236 234 228 225 224 219 207 213 220 222 217 216 212 215 229 221 173 175 170 166 164 162 162 184 215 231
51 45 45 48 39 53 41 42 21 6 7 349 344 327 317 296 258 256 251 247 233 230 218 205 210 210 216 209 205 209 225 209 173 184 166 163 154 156 159 166 181 229 265
47 47 47 44 46 38 43 29 44 7 12 9 357 357 318 318 320 293 268 265 249 233 213 205 207 208 200 202 148 120 104 94 97 85 102 119 134 150 159 187 192 225 235
44 45 44 42 45 44 35 38 38 27 19 18 11 0 345 340 328 321 314 289 274 233 166 150 145 119 110 100 99 98 90 77 74 77 92 102 97 117 151 168 217 244 250